GW7255 Weather Reports


time (UTC)temp
C
wind
direction
speed
KPH
gust
KPH
rain 1hr
cm
rain 24hr
cm
rain mn
cm
humidity
%
barometer
mb
20260504081523 11 230 11.3 14.5 0.00 0.00 0.00 45 1000.1
20260504044538 11 238 8.0 11.3 0.00 0.00 0.00 56 1001.6
20260504043028 11 239 4.8 11.3 0.00 0.00 0.00 56 1001.8
20260504041519 11 315 6.4 14.5 0.00 0.00 0.00 59 1001.9
20260504040047 11 360 11.3 14.5 0.00 0.00 0.00 57 1001.9
20260504034553 11 360 9.7 16.1 0.00 0.00 0.00 59 1001.9
20260504033040 11 360 12.9 16.1 0.00 0.00 0.00 59 1001.8
20260504031527 12 186 4.8 9.7 0.00 0.00 0.00 58 1001.6
20260504030108 13 360 3.2 6.4 0.00 0.00 0.00 60 1001.6
20260504024543 13 360 4.8 8.0 0.00 0.00 0.00 63 1001.5
20260504023030 14 360 0.0 4.8 0.00 0.00 0.00 64 1001.4
20260504021519 15 360 4.8 9.7 0.00 0.00 0.00 62 1001.4
20260504020047 15 155 4.8 9.7 0.00 0.00 0.00 59 1001.4
20260504014541 16 360 8.0 12.9 0.00 0.00 0.00 56 1001.5
20260504013038 17 360 9.7 16.1 0.00 0.00 0.00 54 1001.7
20260504011525 18 360 6.4 14.5 0.00 0.00 0.00 51 1001.9
20260504010047 18 360 6.4 12.9 0.00 0.00 0.00 49 1002.0
20260504004537 19 360 8.0 19.3 0.00 0.00 0.00 49 1002.2
20260504003039 19 133 16.1 22.5 0.00 0.00 0.00 47 1002.4
20260504001521 19 141 12.9 20.9 0.00 0.00 0.00 45 1002.7
20260504000123 20 360 16.1 20.9 0.00 0.00 0.00 45 1002.9
20260503234541 20 107 12.9 17.7 0.00 0.00 0.00 46 1003.1
20260503233038 19 360 11.3 20.9 0.00 0.00 0.00 46 1003.4
20260503231524 20 360 17.7 25.7 0.00 0.00 0.00 45 1003.5
20260503230056 20 175 17.7 30.6 0.00 0.00 0.00 43 1003.8
20260503224542 20 186 14.5 25.7 0.00 0.00 0.00 40 1004.2
20260503223030 20 360 14.5 27.4 0.00 0.00 0.00 41 1004.6
20260503221521 20 360 19.3 33.8 0.00 0.00 0.00 40 1004.9
20260503220049 19 155 12.9 27.4 0.00 0.00 0.00 43 1005.2
20260503214542 20 360 17.7 25.7 0.00 0.00 0.00 43 1005.2
20260503213033 18 360 16.1 24.1 0.00 0.00 0.00 45 1005.8
20260503211523 18 188 11.3 22.5 0.00 0.00 0.00 45 1005.8
20260503210049 16 360 8.0 16.1 0.00 0.00 0.00 56 1006.4
20260503204541 16 360 16.1 20.9 0.00 0.00 0.00 63 1007.0
20260503203035 15 217 20.9 27.4 0.00 0.00 0.00 55 1007.0
20260503201523 16 316 19.3 38.6 0.00 0.00 0.00 51 1006.7
20260503200050 17 316 29.0 40.2 0.00 0.00 0.00 50 1006.8
20260503194547 19 360 25.7 33.8 0.00 0.00 0.00 41 1006.4
20260503193036 21 333 12.9 19.3 0.00 0.00 0.00 37 1006.5
20260503191522 20 313 11.3 20.9 0.00 0.00 0.00 37 1006.9
20260503190050 19 257 12.9 25.7 0.00 0.00 0.00 37 1007.2
20260503184558 19 317 4.8 29.0 0.00 0.00 0.00 38 1007.4
20260503183033 19 22 17.7 25.7 0.00 0.00 0.00 37 1007.6
20260503181525 18 340 19.3 29.0 0.00 0.00 0.00 39 1007.8
20260503180054 18 360 16.1 25.7 0.00 0.00 0.00 40 1008.0
20260503174543 18 17 12.9 25.7 0.00 0.00 0.00 40 1008.2
20260503173036 18 315 8.0 22.5 0.00 0.00 0.00 43 1008.6
20260503171522 17 294 12.9 24.1 0.00 0.00 0.00 43 1009.0